TimeEDT,TemperatureF,Dew PointF,Humidity,Sea Level PressureIn,VisibilityMPH,Wind Direction,Wind SpeedMPH,Gust SpeedMPH,PrecipitationIn,Events,Conditions,WindDirDegrees,DateUTC
12:15 AM,53.6,26.6,35,29.81,10.0,West,11.5,23.0,0.00,,Clear,260,2012-10-31 04:15:00
12:35 AM,53.6,26.6,35,29.81,10.0,West,11.5,20.7,0.00,,Clear,260,2012-10-31 04:35:00
12:55 AM,51.8,26.6,38,29.81,10.0,West,11.5,19.6,0.00,,Clear,260,2012-10-31 04:55:00
1:15 AM,51.8,28.4,41,29.81,10.0,WSW,12.7,19.6,0.00,,Clear,250,2012-10-31 05:15:00
1:35 AM,51.8,28.4,41,29.81,10.0,WSW,11.5,17.3,0.00,,Clear,250,2012-10-31 05:35:00
1:55 AM,51.8,28.4,41,29.81,10.0,WSW,10.4,17.3,0.00,,Clear,250,2012-10-31 05:55:00
2:15 AM,51.8,28.4,41,29.81,10.0,West,11.5,17.3,0.00,,Clear,260,2012-10-31 06:15:00
2:35 AM,51.8,28.4,41,29.81,10.0,West,11.5,20.7,0.00,,Clear,260,2012-10-31 06:35:00
2:55 AM,50.0,28.4,43,29.81,10.0,WSW,12.7,18.4,0.00,,Clear,250,2012-10-31 06:55:00
3:15 AM,50.0,28.4,43,29.82,10.0,WSW,10.4,18.4,0.00,,Clear,250,2012-10-31 07:15:00
3:35 AM,48.2,30.2,50,29.83,10.0,SW,11.5,-,0.00,,Clear,230,2012-10-31 07:35:00
3:55 AM,48.2,30.2,50,29.83,10.0,WSW,12.7,18.4,0.00,,Clear,250,2012-10-31 07:55:00
4:15 AM,48.2,30.2,50,29.82,10.0,WSW,11.5,20.7,0.00,,Clear,240,2012-10-31 08:15:00
4:35 AM,48.2,30.2,50,29.83,10.0,SW,10.4,20.7,0.00,,Clear,230,2012-10-31 08:35:00
4:55 AM,48.2,32.0,54,29.83,10.0,WSW,11.5,19.6,0.00,,Clear,240,2012-10-31 08:55:00
5:15 AM,48.2,32.0,54,29.83,10.0,WSW,10.4,18.4,0.00,,Clear,240,2012-10-31 09:15:00
5:35 AM,48.2,32.0,54,29.84,10.0,WSW,11.5,19.6,0.00,,Clear,250,2012-10-31 09:35:00
5:55 AM,48.2,30.2,50,29.84,10.0,WSW,15.0,21.9,0.00,,Clear,250,2012-10-31 09:55:00
6:15 AM,48.2,30.2,50,29.84,10.0,WSW,12.7,19.6,0.00,,Clear,250,2012-10-31 10:15:00
6:35 AM,48.2,30.2,50,29.85,10.0,WSW,10.4,20.7,0.00,,Clear,250,2012-10-31 10:35:00
6:50 AM,48.2,30.2,50,29.86,10.0,WSW,11.5,20.7,N/A,,Clear,240,2012-10-31 10:50:00
7:55 AM,48.2,30.2,50,29.87,10.0,WSW,13.8,23.0,N/A,,Clear,240,2012-10-31 11:55:00
8:50 AM,50.0,32.0,50,29.89,10.0,WSW,13.8,23.0,N/A,,Clear,240,2012-10-31 12:50:00
9:50 AM,51.8,30.2,44,29.88,10.0,WSW,13.8,23.0,N/A,,Partly Cloudy,250,2012-10-31 13:50:00
10:50 AM,55.4,32.0,41,29.87,10.0,West,13.8,23.0,N/A,,Partly Cloudy,260,2012-10-31 14:50:00
11:50 AM,57.2,28.4,33,29.86,10.0,West,16.1,27.6,N/A,,Partly Cloudy,260,2012-10-31 15:50:00
12:50 PM,60.8,24.8,25,29.85,10.0,West,13.8,23.0,N/A,,Partly Cloudy,270,2012-10-31 16:50:00
1:54 PM,62.6,24.8,24,29.82,10.0,West,13.8,23.0,N/A,,Clear,260,2012-10-31 17:54:00
2:50 PM,66.2,23.0,19,29.79,10.0,WSW,16.1,25.3,N/A,,Clear,250,2012-10-31 18:50:00
3:50 PM,68.0,24.8,20,29.79,10.0,West,12.7,24.2,N/A,,Clear,260,2012-10-31 19:50:00
4:50 PM,68.0,26.6,21,29.80,10.0,West,18.4,24.2,N/A,,Clear,270,2012-10-31 20:50:00
5:50 PM,66.2,30.2,26,29.81,10.0,WSW,9.2,16.1,N/A,,Clear,250,2012-10-31 21:50:00
6:50 PM,60.8,33.8,36,29.83,10.0,SW,4.6,-,N/A,,Clear,220,2012-10-31 22:50:00
8:55 PM,55.4,37.4,51,29.86,10.0,SW,4.6,-,N/A,,Clear,230,2012-11-01 00:55:00
9:15 PM,53.6,37.4,54,29.86,10.0,SSW,3.5,-,0.00,,Clear,210,2012-11-01 01:15:00
9:35 PM,53.6,39.2,58,29.87,10.0,Calm,Calm,-,0.00,,Clear,0,2012-11-01 01:35:00
9:55 PM,53.6,39.2,58,29.87,10.0,SSW,4.6,-,0.00,,Partly Cloudy,210,2012-11-01 01:55:00
10:15 PM,53.6,39.2,58,29.88,10.0,SSW,3.5,-,0.00,,Clear,210,2012-11-01 02:15:00
10:35 PM,53.6,39.2,58,29.88,10.0,SW,3.5,-,0.00,,Clear,220,2012-11-01 02:35:00
10:55 PM,53.6,41.0,62,29.88,10.0,SW,3.5,-,0.00,,Clear,220,2012-11-01 02:55:00
11:15 PM,53.6,41.0,62,29.88,10.0,SW,4.6,-,0.00,,Clear,220,2012-11-01 03:15:00
11:35 PM,55.4,42.8,63,29.88,10.0,SW,6.9,-,0.00,,Clear,220,2012-11-01 03:35:00